This is the latest recevied weather packets stored in our database for station/object LRSM. If no packets are shown the sender has not sent any weather packets the latest 10 day(s).
| Time | Temp. | Humidity | Pressure | Rain* | Wind** | Luminosity | Snow |
|---|---|---|---|---|---|---|---|
| 1777438112 | 7.22° C | 39% | 1020 hPa | - | - | - | - |
| 1777437212 | 7.22° C | 39% | 1020 hPa | - | - | - | - |
| 1777436313 | 6.11° C | 42% | 1020 hPa | - | - | - | - |
| 1777435412 | 6.11° C | 42% | 1020 hPa | - | - | - | - |
| 1777434512 | 6.11° C | 42% | 1020 hPa | - | - | - | - |
| 1777433612 | 6.11° C | 42% | 1020 hPa | - | - | - | - |
| 1777432717 | 5° C | 45% | 1020 hPa | - | - | - | - |
| 1777431812 | 5° C | 45% | 1020 hPa | - | - | - | - |
| 1777430912 | 6.11° C | 46% | 1020 hPa | - | - | - | - |
| 1777430012 | 6.11° C | 46% | 1020 hPa | - | - | - | - |
| 1777429113 | 5° C | 53% | 1020 hPa | - | - | - | - |
| 1777424613 | 5° C | 49% | 1020 hPa | - | - | - | - |
| 1777422812 | 5° C | 49% | 1020 hPa | - | - | - | - |
| 1777419212 | 7.22° C | 46% | 1020 hPa | - | - | - | - |
| 1777412013 | 8.89° C | 37% | 1020 hPa | - | - | - | - |
| 1777406612 | 7.78° C | 43% | 1019 hPa | - | - | - | - |
| 1777403936 | 10° C | 40% | 1019 hPa | - | - | - | - |
| 1777403012 | 10° C | 40% | 1019 hPa | - | - | - | - |
| 1777400313 | 12.22° C | 33% | 1019 hPa | - | - | - | - |
| 1777397612 | 12.78° C | 33% | 1019 hPa | - | - | - | - |
| 1777393113 | 16.11° C | 25% | 1018 hPa | - | - | - | - |
| 1777386812 | 17.22° C | 27% | 1018 hPa | - | - | - | - |
| 1777385912 | 17.78° C | 26% | 1018 hPa | - | - | - | - |
| 1777382323 | 18.89° C | 24% | 1019 hPa | - | - | - | - |
| 1777377812 | 17.78° C | 26% | 1019 hPa | - | - | - | - |
* Rain since midnight (hover to see other rain measurements)
** Current wind speed in m/s (hover to see current wind gust speed)